Terminal Aerodrome Forecast
Issued by NWS

Home | Current Version | Previous Version | Text Only | Print | Product List | Glossary On
Versions: 1 2 3 4 5 6 7 8 9 10 11 12 13
000
FTUS41 KPBZ 210520
TAFBVI
TAF
KBVI 210520Z 2106/2206 19003KT P6SM FEW130 BKN250
     FM210800 26005KT 2SM BR SCT150
     FM211300 29004KT P6SM SCT150
      AMD NOT SKED TIL 211200=

USA.gov is the U.S. government's official web portal to all federal, state and local government web resources and services.